KD0RXN-4 Weather Reports


time (UTC)temp
C
wind
direction
speed
KPH
gust
KPH
rain 1hr
cm
rain 24hr
cm
rain mn
cm
humidity
%
barometer
mb
20260505140529 11 70 0.0 12.9 0.00 0.00 0.00 80 1006.6
20260505125037 11 58 1.6 9.7 0.00 0.00 0.00 83 1006.1
20260505124523 11 87 1.6 16.1 0.00 0.00 0.00 84 1005.9
20260505124031 11 38 4.8 16.1 0.00 0.00 0.00 83 1005.9
20260505123536 11 63 1.6 14.5 0.00 0.00 0.00 83 1005.9
20260505123023 11 55 1.6 6.4 0.00 0.00 0.00 83 1005.9
20260505122528 11 46 0.0 4.8 0.00 0.00 0.00 83 1005.7
20260505122033 11 48 0.0 3.2 0.00 0.00 0.00 83 1005.5
20260505121518 11 74 0.0 1.6 0.00 0.00 0.00 83 1005.5
20260505121023 11 36 0.0 6.4 0.00 0.00 0.00 82 1005.5
20260505120528 11 51 0.0 8.0 0.00 0.00 0.00 82 1005.1
20260505120053 11 83 1.6 8.0 0.00 0.00 0.00 82 1004.9
20260505115517 11 46 0.0 16.1 0.00 0.00 0.00 82 1005.2
20260505115023 11 74 1.6 16.1 0.00 0.00 0.00 82 1004.9
20260505114548 11 55 0.0 4.8 0.00 0.00 0.00 82 1005.0
20260505114037 11 53 1.6 3.2 0.00 0.00 0.00 82 1005.1
20260505113522 11 53 0.0 3.2 0.00 0.00 0.00 82 1005.0
20260505113030 11 65 0.0 1.6 0.00 0.00 0.00 81 1005.0
20260505112556 11 105 0.0 1.6 0.00 0.00 0.00 81 1005.0
20260505112021 12 67 0.0 3.2 0.00 0.00 0.00 81 1005.3
20260505111547 12 59 0.0 3.2 0.00 0.00 0.00 81 1005.2
20260505111032 12 67 0.0 3.2 0.00 0.00 0.00 81 1005.2
20260505110519 12 344 0.0 14.5 0.00 0.00 0.00 81 1004.8
20260505102052 12 77 0.0 4.8 0.00 0.00 0.00 82 1004.7
20260505101517 13 61 0.0 9.7 0.00 0.00 0.00 81 1004.8
20260505101022 13 38 3.2 9.7 0.00 0.00 0.00 80 1004.9
20260505100528 13 55 0.0 3.2 0.00 0.00 0.00 80 1005.0
20260505100053 14 49 0.0 3.2 0.00 0.00 0.00 79 1005.3
20260505095537 14 61 0.0 3.2 0.00 0.00 0.00 78 1005.4
20260505095021 15 57 0.0 1.6 0.00 0.00 0.00 76 1005.5
20260505094525 15 90 0.0 14.5 0.00 0.00 0.00 75 1005.6
20260505094050 16 37 1.6 14.5 0.00 0.00 0.00 77 1005.3
20260505093535 16 53 0.0 3.2 0.00 0.00 0.00 76 1005.2
20260505093024 17 13 0.0 3.2 0.00 0.00 0.00 76 1004.8
20260505092548 17 54 0.0 3.2 0.00 0.00 0.00 76 1004.4
20260505092054 18 12 0.0 3.2 0.00 0.00 0.00 78 1004.3
20260505091536 18 119 0.0 3.2 0.00 0.00 0.00 78 1004.2
20260505091021 17 232 0.0 1.6 0.00 0.00 0.00 79 1004.1
20260505090526 17 273 0.0 1.6 0.00 0.00 0.00 80 1003.9
20260505090032 17 257 0.0 0.0 0.00 0.00 0.00 81 1003.6
20260505085536 17 236 0.0 0.0 0.00 0.00 0.00 82 1003.2
20260505085019 17 228 0.0 0.0 0.00 0.00 0.00 82 1002.5
20260505084523 17 221 0.0 0.0 0.00 0.00 0.00 81 1002.0
20260505084029 17 242 0.0 1.6 0.00 0.00 0.00 81 1001.9
20260505083534 17 204 0.0 1.6 0.00 0.00 0.00 80 1001.6
20260505083020 18 236 0.0 1.6 0.00 0.00 0.00 80 1001.9
20260505082530 18 241 0.0 4.8 0.00 0.00 0.00 79 1001.9
20260505082035 18 234 1.6 9.7 0.00 0.00 0.00 79 1001.8
20260505081520 18 211 1.6 6.4 0.00 0.00 0.00 79 1001.5
20260505081024 18 210 0.0 16.1 0.00 0.00 0.00 78 1001.8
20260505080530 18 195 1.6 16.1 0.00 0.00 0.00 76 1001.7
20260505080037 19 183 1.6 19.3 0.00 0.00 0.00 73 1001.6
20260505075521 19 185 1.6 19.3 0.00 0.00 0.00 72 1001.7
20260505075024 19 221 0.0 6.4 0.00 0.00 0.00 71 1002.2
20260505074530 19 182 0.0 6.4 0.00 0.00 0.00 70 1002.5
20260505074055 19 228 0.0 1.6 0.00 0.00 0.00 70 1002.5
20260505073539 19 185 0.0 1.6 0.00 0.00 0.00 70 1002.6
20260505073023 19 193 0.0 1.6 0.00 0.00 0.00 69 1002.7
20260505072532 19 223 0.0 1.6 0.00 0.00 0.00 69 1002.8
20260505072037 19 180 0.0 0.0 0.00 0.00 0.00 69 1003.0
20260505071524 19 206 0.0 0.0 0.00 0.00 0.00 69 1003.0
20260505071028 19 209 0.0 0.0 0.00 0.00 0.00 69 1003.1
20260505070534 19 191 0.0 0.0 0.00 0.00 0.00 68 1003.0
20260505070022 19 220 0.0 0.0 0.00 0.00 0.00 69 1003.0
20260505065528 19 199 0.0 0.0 0.00 0.00 0.00 68 1003.2
20260505065032 19 187 0.0 1.6 0.00 0.00 0.00 68 1003.0
20260505064536 19 192 0.0 1.6 0.00 0.00 0.00 68 1002.9
20260505064021 19 209 0.0 3.2 0.00 0.00 0.00 68 1002.9
20260505063531 19 207 0.0 3.2 0.00 0.00 0.00 68 1002.7
20260505063056 19 201 0.0 0.0 0.00 0.00 0.00 68 1002.8
20260505062520 19 215 0.0 3.2 0.00 0.00 0.00 68 1002.8
20260505062025 19 189 0.0 3.2 0.00 0.00 0.00 68 1002.8
20260505061531 19 200 0.0 0.0 0.00 0.00 0.00 68 1002.7
20260505061055 19 177 0.0 0.0 0.00 0.00 0.00 68 1002.7
20260505060518 19 213 0.0 0.0 0.00 0.00 0.00 68 1002.7
20260505060023 19 227 0.0 1.6 0.00 0.00 0.00 68 1002.8
20260505055527 19 231 0.0 1.6 0.00 0.00 0.00 68 1002.9
20260505055025 19 203 0.0 1.6 0.00 0.00 0.00 68 1002.8
20260505054527 19 185 0.0 1.6 0.00 0.00 0.00 68 1002.9
20260505054032 19 207 0.0 1.6 0.00 0.00 0.00 68 1003.0
20260505053520 19 199 0.0 0.0 0.00 0.00 0.00 68 1003.0
20260505053027 19 200 0.0 1.6 0.00 0.00 0.00 67 1003.1
20260505052531 19 192 0.0 1.6 0.00 0.00 0.00 67 1003.3
20260505052036 19 162 0.0 1.6 0.00 0.00 0.00 67 1003.3
20260505051521 19 192 0.0 0.0 0.00 0.00 0.00 68 1003.4
20260505051025 20 211 0.0 0.0 0.00 0.00 0.00 67 1003.2
20260505050530 20 201 0.0 0.0 0.00 0.00 0.00 67 1003.1
20260505041543 20 175 0.0 1.6 0.00 0.00 0.00 65 1003.3
20260505041027 20 153 0.0 0.0 0.00 0.00 0.00 64 1003.4
20260505040552 21 188 0.0 0.0 0.00 0.00 0.00 64 1003.6
20260505040036 21 163 0.0 0.0 0.00 0.00 0.00 63 1003.8
20260505035522 21 185 0.0 0.0 0.00 0.00 0.00 63 1003.8
20260505035026 21 194 0.0 0.0 0.00 0.00 0.00 62 1003.6
20260505034532 21 190 0.0 0.0 0.00 0.00 0.00 62 1003.5
20260505034037 21 231 0.0 12.9 0.00 0.00 0.00 62 1003.4
20260505033542 21 229 1.6 12.9 0.00 0.00 0.00 62 1003.6
20260505033045 21 223 0.0 4.8 0.00 0.00 0.00 61 1003.3
20260505032529 21 206 0.0 9.7 0.00 0.00 0.00 61 1003.3
20260505032055 21 222 1.6 14.5 0.00 0.00 0.00 60 1003.4
20260505031539 21 208 1.6 6.4 0.00 0.00 0.00 60 1003.3
20260505031028 22 227 1.6 8.0 0.00 0.00 0.00 60 1003.3
20260505030532 22 219 1.6 8.0 0.00 0.00 0.00 59 1003.2
20260505030018 22 213 0.0 14.5 0.00 0.00 0.00 59 1003.1
20260505025523 22 236 1.6 16.1 0.00 0.00 0.00 59 1003.2
20260505025029 22 222 3.2 12.9 0.00 0.00 0.00 59 1003.1
20260505024534 22 256 3.2 12.9 0.00 0.00 0.00 59 1003.1
20260505024040 22 190 0.0 6.4 0.00 0.00 0.00 59 1003.0
20260505023524 22 176 1.6 9.7 0.00 0.00 0.00 58 1002.9
20260505023029 22 205 1.6 9.7 0.00 0.00 0.00 58 1003.1
20260505022557 22 213 0.0 8.0 0.00 0.00 0.00 57 1003.0
20260505022020 22 199 1.6 8.0 0.00 0.00 0.00 57 1003.0
20260505021525 22 230 0.0 3.2 0.00 0.00 0.00 57 1003.1
20260505021035 22 239 0.0 6.4 0.00 0.00 0.00 57 1003.0
20260505020520 22 182 0.0 8.0 0.00 0.00 0.00 56 1002.6
20260505020047 22 174 0.0 8.0 0.00 0.00 0.00 56 1002.6
20260505015531 22 203 0.0 6.4 0.00 0.00 0.00 56 1002.5
20260505015056 23 229 0.0 3.2 0.00 0.00 0.00 56 1002.6
20260505014520 23 212 0.0 3.2 0.00 0.00 0.00 56 1002.6
20260505014026 23 204 0.0 1.6 0.00 0.00 0.00 55 1002.7
20260505013531 23 218 0.0 1.6 0.00 0.00 0.00 55 1002.6
20260505013036 23 220 0.0 1.6 0.00 0.00 0.00 54 1002.3
20260505012521 23 224 0.0 4.8 0.00 0.00 0.00 54 1002.3
20260505012027 23 214 0.0 9.7 0.00 0.00 0.00 54 1002.3
20260505011532 23 225 0.0 12.9 0.00 0.00 0.00 53 1002.3
20260505011020 23 188 0.0 12.9 0.00 0.00 0.00 52 1002.2
20260505010524 23 184 0.0 4.8 0.00 0.00 0.00 52 1002.2
20260505010029 24 246 0.0 1.6 0.00 0.00 0.00 52 1002.2
20260505005555 24 213 0.0 4.8 0.00 0.00 0.00 51 1002.0
20260505005018 24 192 0.0 9.7 0.00 0.00 0.00 52 1002.0
20260505004524 24 192 1.6 9.7 0.00 0.00 0.00 52 1002.0
20260505004029 24 211 0.0 8.0 0.00 0.00 0.00 52 1001.9
20260505003535 24 215 0.0 3.2 0.00 0.00 0.00 52 1001.8
20260505003020 24 203 0.0 4.8 0.00 0.00 0.00 51 1001.8
20260505002525 25 225 0.0 4.8 0.00 0.00 0.00 50 1001.8
20260505002031 25 211 0.0 3.2 0.00 0.00 0.00 50 1001.9
20260505001520 25 211 1.6 11.3 0.00 0.00 0.00 49 1001.8
20260505001044 25 198 0.0 11.3 0.00 0.00 0.00 49 1001.9
20260505000549 25 198 1.6 4.8 0.00 0.00 0.00 49 1001.9
20260505000033 25 190 0.0 4.8 0.00 0.00 0.00 49 1001.9
20260504235558 25 199 0.0 3.2 0.00 0.00 0.00 49 1002.0
20260504235022 26 178 0.0 6.4 0.00 0.00 0.00 48 1001.9
20260504234527 26 232 0.0 12.9 0.00 0.00 0.00 48 1001.9
20260504234032 26 207 3.2 12.9 0.00 0.00 0.00 47 1001.9
20260504233518 26 186 1.6 11.3 0.00 0.00 0.00 46 1001.9
20260504233044 26 220 1.6 11.3 0.00 0.00 0.00 46 1001.9
20260504232526 26 221 3.2 11.3 0.00 0.00 0.00 46 1002.0
20260504232031 26 240 1.6 14.5 0.00 0.00 0.00 46 1002.0
20260504231536 26 200 1.6 16.1 0.00 0.00 0.00 46 1002.0
20260504231025 26 200 1.6 12.9 0.00 0.00 0.00 47 1002.0
20260504230530 26 254 0.0 14.5 0.00 0.00 0.00 47 1002.1
20260504230036 26 194 1.6 14.5 0.00 0.00 0.00 47 1002.0
20260504225521 26 203 1.6 9.7 0.00 0.00 0.00 47 1002.0
20260504225026 26 161 0.0 14.5 0.00 0.00 0.00 47 1002.0
20260504224532 26 275 1.6 14.5 0.00 0.00 0.00 46 1002.1
20260504224017 26 212 0.0 11.3 0.00 0.00 0.00 46 1002.0
20260504223522 26 197 1.6 17.7 0.00 0.00 0.00 47 1002.1
20260504223028 26 213 4.8 17.7 0.00 0.00 0.00 46 1002.1
20260504222534 26 200 1.6 8.0 0.00 0.00 0.00 46 1002.1
20260504222021 26 177 1.6 20.9 0.00 0.00 0.00 45 1002.3
20260504221525 26 218 4.8 20.9 0.00 0.00 0.00 46 1002.2
20260504221050 26 231 4.8 19.3 0.00 0.00 0.00 46 1002.2
20260504220534 26 213 3.2 19.3 0.00 0.00 0.00 46 1002.2
20260504220018 26 259 1.6 16.1 0.00 0.00 0.00 47 1002.2
20260504215523 26 211 1.6 9.7 0.00 0.00 0.00 47 1002.3
20260504215048 26 200 1.6 20.9 0.00 0.00 0.00 47 1002.3
20260504214552 26 229 1.6 11.3 0.00 0.00 0.00 47 1002.3
20260504214017 26 188 1.6 11.3 0.00 0.00 0.00 47 1002.3
20260504213523 26 284 1.6 16.1 0.00 0.00 0.00 47 1002.3
20260504213028 26 202 1.6 16.1 0.00 0.00 0.00 47 1002.3
20260504212533 26 232 1.6 22.5 0.00 0.00 0.00 47 1002.3
20260504212018 26 202 3.2 22.5 0.00 0.00 0.00 47 1002.5
20260504211528 26 188 4.8 22.5 0.00 0.00 0.00 47 1002.5
20260504211032 26 186 1.6 16.1 0.00 0.00 0.00 46 1002.6
20260504210518 26 189 3.2 20.9 0.00 0.00 0.00 45 1002.5
20260504210043 27 201 6.4 20.9 0.00 0.00 0.00 45 1002.5
20260504205527 27 208 3.2 25.7 0.00 0.00 0.00 46 1002.5
20260504205032 26 202 4.8 25.7 0.00 0.00 0.00 45 1002.6
20260504204517 26 246 3.2 17.7 0.00 0.00 0.00 45 1002.7
20260504204023 27 175 3.2 9.7 0.00 0.00 0.00 45 1002.8
20260504203528 26 239 1.6 19.3 0.00 0.00 0.00 45 1002.7
20260504203033 27 193 6.4 19.3 0.00 0.00 0.00 43 1002.8
20260504202518 27 234 4.8 16.1 0.00 0.00 0.00 44 1003.0
20260504202028 26 265 3.2 20.9 0.00 0.00 0.00 45 1003.0
20260504201533 27 227 4.8 20.9 0.00 0.00 0.00 44 1003.1
20260504201037 26 217 3.2 16.1 0.00 0.00 0.00 45 1003.0
20260504200522 27 232 1.6 25.7 0.00 0.00 0.00 44 1003.1
20260504200048 27 212 4.8 17.7 0.00 0.00 0.00 45 1003.2
20260504195531 26 228 1.6 16.1 0.00 0.00 0.00 45 1003.4
20260504195035 26 201 3.2 12.9 0.00 0.00 0.00 45 1003.4
20260504194519 26 200 1.6 19.3 0.00 0.00 0.00 45 1003.3
20260504194044 26 200 3.2 19.3 0.00 0.00 0.00 45 1003.6
20260504193530 26 156 3.2 17.7 0.00 0.00 0.00 45 1003.5
20260504193035 26 219 1.6 16.1 0.00 0.00 0.00 45 1003.5
20260504192520 26 194 3.2 24.1 0.00 0.00 0.00 45 1003.6
20260504192029 26 275 4.8 24.1 0.00 0.00 0.00 45 1003.7
20260504191533 26 231 3.2 22.5 0.00 0.00 0.00 45 1003.7
20260504191018 26 226 4.8 17.7 0.00 0.00 0.00 45 1003.6
20260504190543 26 229 1.6 19.3 0.00 0.00 0.00 44 1003.7
20260504190047 26 200 1.6 19.3 0.00 0.00 0.00 45 1003.7
20260504185531 26 245 1.6 11.3 0.00 0.00 0.00 46 1003.7
20260504185057 26 206 1.6 14.5 0.00 0.00 0.00 46 1003.8
20260504184520 26 207 1.6 17.7 0.00 0.00 0.00 45 1003.9
20260504184045 26 207 3.2 20.9 0.00 0.00 0.00 44 1003.9
20260504183528 26 257 4.8 22.5 0.00 0.00 0.00 45 1003.8
20260504183036 26 266 3.2 22.5 0.00 0.00 0.00 45 1003.9
20260504182520 26 246 1.6 17.7 0.00 0.00 0.00 46 1003.9
20260504182026 26 259 1.6 20.9 0.00 0.00 0.00 45 1003.9
20260504181529 26 230 3.2 20.9 0.00 0.00 0.00 45 1004.0
20260504181018 26 215 3.2 16.1 0.00 0.00 0.00 45 1004.0
20260504180524 26 238 0.0 4.8 0.00 0.00 0.00 46 1003.9
20260504180029 26 200 0.0 20.9 0.00 0.00 0.00 46 1004.0
20260504175534 26 200 1.6 20.9 0.00 0.00 0.00 46 1004.0
20260504175019 25 229 3.2 24.1 0.00 0.00 0.00 46 1004.0
20260504174545 25 244 4.8 24.1 0.00 0.00 0.00 46 1004.0
20260504174049 25 258 1.6 22.5 0.00 0.00 0.00 46 1004.0
20260504173532 25 199 3.2 22.5 0.00 0.00 0.00 46 1004.0
20260504173018 25 252 1.6 25.7 0.00 0.00 0.00 47 1004.0
20260504172522 25 244 3.2 25.7 0.00 0.00 0.00 47 1004.0
20260504172027 25 255 4.8 22.5 0.00 0.00 0.00 47 1004.0
20260504171552 25 216 4.8 17.7 0.00 0.00 0.00 47 1003.9
20260504171019 25 264 3.2 24.1 0.00 0.00 0.00 47 1004.0
20260504170544 25 207 6.4 24.1 0.00 0.00 0.00 46 1003.9
20260504151031 22 255 8.0 29.0 0.00 0.00 0.00 48 1004.4
20260504150556 22 257 4.8 22.5 0.00 0.00 0.00 49 1004.4